Regional Weather Roundup
Issued by NWS

Home | Current Version | Previous Version | Graphics & Text | Print | Product List | Glossary Off
Versions: 1 2 3 4 5 6 7 8 9 10 11 12 13 14 15 16 17 18 19 20 21 22 23 24 25 26 27 28 29 30 31 32 33 34 35 36 37 38 39 40 41 42 43 44 45 46 47 48 49 50

000
ASUS43 KMPX 241110
RWRMN
WEATHER ROUNDUP FOR MINNESOTA
NATIONAL WEATHER SERVICE TWIN CITIES/CHANHASSEN MN
600 AM CDT SUN JUL 24 2016


NOTE: "FAIR" INDICATES FEW OR NO CLOUDS BELOW 12,000 FEET WITH NO
SIGNIFICANT WEATHER AND/OR OBSTRUCTIONS TO VISIBILITY. N/A MEANS
CURRENT SKY AND/OR WEATHER CONDITIONS ARE NOT AVAILABLE.

MNZ060>063-068>070-241200-
   Twin Cities Metro

CITY           SKY/WX    TMP DP  RH WIND       PRES   REMARKS
TWIN CITIES    CLOUDY    74  68  81 NW6       29.79R
ST PAUL        MOCLDY    74  72  93 CALM      29.78R
CRYSTAL        CLOUDY    73  67  81 CALM      29.78R
BLAINE         PTCLDY    73  73 100 CALM      29.79R
LAKEVILLE      CLOUDY    73  70  88 NW6       29.80R
EDEN PRAIRIE   CLEAR     74  68  81 NW8       29.79R
LAKEVILLE      CLOUDY    73  70  88 NW6       29.80R
SOUTH ST PAUL  CLOUDY    75  72  90 CALM      29.78R
LAKE ELMO      FAIR      72  70  94 E3        29.80R
$$
MNZ001>005-007-008-013>017-022>024-027-028-241200-
   Northwest Minnesota

CITY           SKY/WX    TMP DP  RH WIND       PRES   REMARKS
BEMIDJI        CLEAR     64  61  88 W12       29.78R
HALLOCK        CLEAR     61  59  94 W5        29.77R
ROSEAU         PTCLDY    63  57  82 W8        29.75R
WARROAD        CLEAR     61  57  88 W7        29.73R
THIEF RVR FALL CLEAR     61  59  93 W8        29.80R
CROOKSTON      CLEAR     61  61 100 W7        29.81R
FOSSTON        CLEAR     61  57  88 W10       29.81R
DETROIT LAKES  CLEAR     63  59  88 W10G17    29.85R
MOORHEAD       CLEAR     64  59  82 W14G20    29.84R
PARK RAPIDS    CLEAR     66  61  84 NW12      29.80R
MAHNOMEN       FAIR      61  59  94 W8        29.82R
$$
MNZ006-009>011-018-025>026-241200-
   North Central Minnesota

CITY           SKY/WX    TMP DP  RH WIND       PRES   REMARKS
BAUDETTE       CLEAR     63  60  90 W9        29.72R
FLAG ISLAND    MOCLDY    63  61  94 W15       29.68R
INTL FALLS     MOCLDY    68  66  93 W8        29.70R
WASKISH        CLEAR     66  63  88 W15       29.75R
BIG FORK       PTCLDY    68  66  94 SW3       29.74R
LONGVILLE      CLEAR     64  64 100 CALM      29.77S
GRAND RAPIDS   CLEAR     68  66  93 W6        29.77S
CRANE LAKE     CLOUDY    66  64  94 S3        29.71F
ORR            CLOUDY    68  64  88 CALM      29.70S
COOK           CLOUDY    66  66 100 SW5       29.73S
WALKER         FAIR      64  62  92 W8        29.78R
$$
MNZ012-019>021-037-241200-
   Northeast Minnesota

CITY           SKY/WX    TMP DP  RH WIND       PRES   REMARKS
DULUTH         MOCLDY    65  65 100 W3        29.75R FOG
ELY            CLOUDY    66  64  94 SW3       29.72S
HIBBING        FOG       64  64 100 VRB5      29.75R VSB 1/4
EVELETH        CLOUDY    65  65  97 W6        29.76R
DULUTH HARBOR  CLEAR     63  61  94 S6        29.74R
TWO HARBORS    CLOUDY    66  61  82 CALM      29.72R HAZE
SILVER BAY     MOCLDY    64  63  94 CALM      29.71S FOG
GRAND MARAIS     N/A     60  57  89 NE3       29.72S
G MARAIS ARPRT CLOUDY    64  61  88 CALM      29.77R
$$
MNZ029>031-032-039>041-046>048-054>057-064-241200-
   West Central Minnesota

CITY           SKY/WX    TMP DP  RH WIND       PRES   REMARKS
FERGUS FALLS   CLEAR     63  61  94 NW8       29.86S
WHEATON        CLEAR     64  63  94 W9        29.89R
MORRIS         CLEAR     64  63  94 W8        29.86R
ALEXANDRIA     CLEAR     66  62  87 NW10      29.86R
ELBOW LAKE     FAIR      63  61  94 NW7       29.86R
WADENA         CLEAR     64  63  94 W8        29.82R
GLENWOOD       CLEAR     66  63  88 NW13      29.85R
APPLETON       CLEAR     68  63  83 NW9       29.86R
BENSON         CLEAR     66  61  82 N10       29.85R
ORTONVILLE     CLEAR     68  61  77 NW12      29.88R
MADISON        CLEAR     66  63  88 NW8       29.88R
WILLMAR        FAIR      66  66 100 W7        29.86R
$$
MNZ033>034-036-042>043-049>051-058-059-241200-
   Central Minnesota

CITY           SKY/WX    TMP DP  RH WIND       PRES   REMARKS
ST CLOUD       CLEAR     69  69 100 NW7       29.79R
SAUK CENTRE    FAIR      65  65  97 W3        29.83R
PAYNESVILLE    CLEAR     66  66 100 W6        29.83R
AITKIN         CLEAR     68  63  83 W3        29.77R
PINE RIVER     CLEAR     64  64 100 CALM      29.82S
BRAINERD       CLEAR     68  67  96 W6        29.79R
STAPLES        CLEAR     64  64 100 W7        29.81R
LONG PRAIRIE   FAIR      68  64  88 SW7       29.83R
LITTLE FALLS   CLEAR     68  64  88 W6        29.80S
LITCHFIELD     CLEAR     72  70  94 W8        29.83R
BUFFALO        CLEAR     71  67  89 W3        29.81R
MAPLE LAKE     CLEAR     71  69  92 NW5       29.82R
HUTCHINSON     CLEAR     69  68  96 W5        29.83R
$$
MNZ037-044-045-052-053-241200-
   East Central Minnesota

CITY           SKY/WX    TMP DP  RH WIND       PRES   REMARKS
PRINCETON      PTCLDY    70  68  94 CALM      29.80R
MORA           MOCLDY    64  64 100 S3        29.80R
CAMBRIDGE      MOCLDY    70  64  83 CALM      29.78R
RUSH CITY      MOCLDY    67  65  95 CALM      29.79R
MOOSE LAKE     CLOUDY    63  63 100 CALM      29.75R
HINCKLEY       CLOUDY    68  68 100 SW3       29.78R
CLOQUET        FOG       64  63  94 CALM      29.75R VSB 3/4
MCGREGOR       CLEAR     63  63 100 CALM      29.77R
$$
MNZ071>073-080-081-089-090-097-098-241200-
   Southwest Minnesota

CITY           SKY/WX    TMP DP  RH WIND       PRES   REMARKS
MONTEVIDEO     CLEAR     68  66  94 N7        29.88R
GRANITE FALLS  CLEAR     69  67  94 W9        29.88R
CANBY          CLEAR     69  64  85 NW7       29.90R
MARSHALL       CLEAR     66  63  90 NW9       29.88R
REDWOOD FALLS  CLEAR     70  67  90 W9        29.85R
OLIVIA         CLEAR     68  66  94 NW6       29.84R
PIPESTONE      CLEAR     70  66  88 NW9       29.91S
WINDOM         CLEAR     70  66  88 NW7       29.87R
WORTHINGTON    CLEAR     67  64  90 NW8       29.90R
JACKSON        CLEAR     70  64  83 NW9       29.88R
TRACY          CLEAR     69  65  89 NW7       29.88R
SLAYTON        CLEAR     65  62  90 W7        29.91R
$$
MNZ065>067-074>077-082>085-091>093-241200-
   South Central Minnesota

CITY           SKY/WX    TMP DP  RH WIND       PRES   REMARKS
MANKATO        MOCLDY    73  68  83 N12       29.82R
NEW ULM        CLEAR     70  70 100 NW9       29.84R
ST JAMES       CLEAR     66  64  94 NW8       29.85R
FAIRMONT       CLEAR     73  45  35 NW12      29.83R
GLENCOE        CLEAR     71  69  96 W6        29.81R
FARIBAULT      CLOUDY    75  73  94 NW7       29.81R
OWATONNA       CLOUDY    77  75  94 W7        29.80R
WASECA         CLOUDY    77  73  88 W10       29.82R
ALBERT LEA     CLOUDY    79  75  89 W7        29.81R
$$
MNZ078>079-086>088-094>096-241200-
   Southeast Minnesota

CITY           SKY/WX    TMP DP  RH WIND       PRES   REMARKS
ROCHESTER      MOCLDY    75  75 100 SW8       29.81R
RED WING       CLOUDY    75  73  94 CALM      29.77R FOG
STANTON        CLOUDY    77  73  88 NW3       29.78R
DODGE CENTER   CLOUDY    75  73  94 W8        29.81R
WINONA         PTCLDY    73  72  94 CALM      29.78R
AUSTIN         MOCLDY    73  72  94 SW5       29.80S
PRESTON        PTCLDY    74  72  93 SW9       29.80S
$$
ABBREVIATIONS USED IN REMARKS
   TC - TEMPERATURES IN CELSIUS
  WCI - WIND CHILL INDEX
   HX - HEAT INDEX
  VSB - VISIBILITY
$$



USA.gov is the U.S. government's official web portal to all federal, state and local government web resources and services.